Other Public Products
Issued by NWS Grand Forks, ND

Home | Current Version | Previous Version | Text Only | Print | Product List | Glossary Off
Versions: 1 2 3 4 5 6 7 8 9 10 11 12 13 14 15 16 17 18 19 20 21 22 23 24 25 26 27 28 29 30 31 32 33 34 35 36 37 38 39 40 41 42 43 44 45 46 47 48 49 50

000
FPUS83 KFGF 012210
OPUFGF
PRAIRIE TO PINES WEATHER ROUNDUP
NATIONAL WEATHER SERVICE EASTERN NORTH DAKOTA/GRAND FORKS ND
500 PM CDT WED OCT 01 2014

 **SATELLITE DATA USED TO AUGMENT SKY COVER AT AUTOMATED STATIONS**
 *****  WEATHER ACROSS EASTERN NORTH DAKOTA  *****

CITY           SKY/WX    TMP DP  RH WIND       PRES   REMARKS
GRAND FORKS    CLOUDY    64  54  69 SW17G23   29.62R
GRAND FORKS AF CLOUDY    62  57  82 SW12      29.63R
GRAND CITY NWS   N/A     63 N/A N/A W10         N/A
BUXTON         NOT AVBL
DEVILS LAKE    PTSUNNY   61  46  59 W15       29.62R
FARGO          CLOUDY    66  50  56 W16       29.67R
WAHPETON ARPT  PTCLDY    66  46  48 W18       29.69R
$$

 *****  WEATHER ACROSS CENTRAL AND WESTERN NORTH DAKOTA  *****

CITY           SKY/WX    TMP DP  RH WIND       PRES   REMARKS
JAMESTOWN      CLOUDY    60  49  66 W14       29.70R
BISMARCK       CLOUDY    60  49  66 W15G26    29.76R
MINOT          CLOUDY    58  48  69 W17G25    29.69R
MINOT AFB      CLOUDY    56  51  82 W21G31    29.68R
GARRISON         N/A     60  48  64 W16G25    29.73R
WILLISTON      CLOUDY    57  44  62 NW18G25   29.78R
DICKINSON      CLOUDY    55  46  71 W12       29.79S
HETTINGER      PTSUNNY   53  46  77 W16G22    29.84R
$$

 *****  OTHER OBSERVATIONS NORTHEAST NORTH DAKOTA  *****

CITY           SKY/WX    TMP DP  RH WIND       PRES   REMARKS
WALHALLA         N/A     63  50  63 SW15G21   29.57R
LANGDON        MOCLDY    59  48  67 W21G29    29.60R
CAVALIER       CLOUDY    64  50  59 SW12G20   29.58R
GRAFTON        CLOUDY    63  54  72 W13       29.59R
CANDO          CLOUDY    59  48  67 W17G23    29.63R
FORT TOTTEN      N/A     61  50  66 NW7       29.95S
ROLLA          CLOUDY    59  46  63 W16G23    29.62R
RUGBY          MOCLDY    59  50  72 W17G23    29.64R
 ***** THE ABOVE OBSERVATIONS ARE NON NWS ARE NOT QUALITY
        CONTROLLED AND MAY MIS-REPORT RAIN FOR SNOW...
$$

 *****  OTHER OBSERVATIONS SOUTHEAST NORTH DAKOTA *****

CITY           SKY/WX    TMP DP  RH WIND       PRES   REMARKS
COOPERSTOWN    NOT AVBL
VALLEY CITY    CLOUDY    63  52  67 W18       29.69R
OAKES            N/A     63  50  63 W15G22    29.73R
GWINNER        CLOUDY    64  48  55 W15       29.73R
SHEYENNE NWR     N/A     64  50  59 W10       29.95S
BUFFALO        NOT AVBL
WYNDMERE         N/A     66  52  59 W9          N/A
 ***** THE ABOVE OBSERVATIONS ARE NON NWS ARE NOT QUALITY
       CONTROLLED AND MAY MIS-REPORT RAIN FOR SNOW...
$$

  *****  WEATHER ACROSS NORTHERN MINNESOTA  *****

CITY           SKY/WX    TMP DP  RH WIND       PRES   REMARKS
FLAG ISLAND    CLOUDY    57  54  88 S25       29.55S
WARROAD        CLOUDY    64  55  72 SW13G24   29.57S
ROSEAU         PTSUNNY   61  55  82 SW13      29.58R
HALLOCK        PTSUNNY   64  52  63 W15G23    29.57R
THF RVR FALLS  CLOUDY    64  50  59 SW16G22   29.62R
HALSTAD          N/A     65  48  54 SW16        N/A
FOSSTON        CLOUDY    64  52  63 W12G17    29.65R
BAUDETTE       LGT RAIN  57  53  86 S9        29.62S
WASKISH        CLOUDY    57  54  88 S7G18     29.65R
CROOKSTON      CLOUDY    64  54  68 W17G23    29.64R
$$
  *****  WEATHER ACROSS CENTRAL AND WEST MINNESOTA  *****

CITY           SKY/WX    TMP DP  RH WIND       PRES   REMARKS
BEMIDJI        CLOUDY    57  53  85 SE14      29.67S
PARK RAPIDS    CLOUDY    56  54  93 S14       29.69S FOG
WADENA         CLOUDY    57  55  94 S9        29.70S FOG
DETROIT LAKES  MOSUNNY   66  52  59 W12       29.68S
MOORHEAD       NOT AVBL
FERGUS FALLS   PTSUNNY   68  48  49 W15       29.69R
ELBOW LAKE     MOCLDY    70  53  54 W10       29.69R
MORRIS MN      MOSUNNY   73  54  49 W7        29.69R
STAPLES        CLOUDY    55  54  94 S7        29.72S FOG
WHEATON        SUNNY     68  50  52 W13G18    29.72R
$$
  *****  WEATHER ELSEWHERE ACROSS MINNESOTA  *****

CITY           SKY/WX    TMP DP  RH WIND       PRES   REMARKS
DULUTH         CLOUDY    50  48  93 SE8       29.78R FOG
INTRNTL FALLS  CLOUDY    54  50  86 S8        29.68R
ELY            RAIN      48  46  93 S12       29.76F
CLOQUET        DRIZZLE   50  48  93 SE6       29.76F
BRAINERD       CLOUDY    53  51  93 S8        29.75R
HIBBING        LGT RAIN  51  48  89 SE9       29.75F
ALEXANDRIA     MOSUNNY   62  57  83 S13       29.72R
SAINT CLOUD    CLOUDY    58  53  84 S9        29.75R
MINNEAPOLIS    CLOUDY    56  54  93 SE7       29.78R
$$

  *****  WEATHER ACROSS SOUTH DAKOTA  *****

CITY           SKY/WX    TMP DP  RH WIND       PRES   REMARKS
SIOUX FALLS    PTSUNNY   74  53  48 NW10      29.73R
BROOKINGS      NOT AVBL
WATERTOWN      MOSUNNY   69  49  48 W13       29.73R
HURON          PTSUNNY   72  47  40 NW12      29.73R
SISSETON         N/A     68  51  54 NW15      29.70R
ABERDEEN       PTSUNNY   68  50  52 NW16G25   29.74R
MITCHELL       MOSUNNY   75  49  39 W10       29.74R
PIERRE         PTSUNNY   65  48  54 NW22      29.78R
MOBRIDGE       CLOUDY    62  49  62 NW15G23   29.77R
RAPID CITY     CLOUDY    53  44  71 N15       29.89R
$$

  *****  SOME WEATHER IN NEARBY STATES *****

CITY           SKY/WX    TMP DP  RH WIND       PRES   REMARKS
GLASGOW MT     MOSUNNY   60  39  45 W18G26    29.82S HAZE
GREAT FALLS MT PTSUNNY   58  32  37 SW23G33   29.89F
CHEYENNE WY    LGT RAIN  39  34  82 NW15G24   29.99R
SCOTTSBLUFF NE CLOUDY    59  45  59 NW17      29.88R
OMAHA NE       PTSUNNY   74  62  66 VRB3      29.73R
DES MOINES IA  CLOUDY    71  63  75 S10       29.76R
DAVENPORT IA   NOT AVBL
CHICAGO IL     PTSUNNY   67  52  58 SE13      29.89F
EAU CLAIRE WI  LGT RAIN  55  53  93 SE3       29.81S FOG
LA CROSSE WI   CLOUDY    63  55  75 W3        29.81S
$$

  *****  SOME NATIONAL WEATHER *****

CITY           SKY/WX    TMP DP  RH WIND       PRES   REMARKS
LA GUARDIA NY  CLOUDY    64  58  80 NE9       30.03S
RALEIGH NC     PTSUNNY   76  62  62 CALM      30.00S
ATLANTA GA     PTSUNNY   82  58  43 SE3       29.98R
NEW ORLEANS LA PTSUNNY   83  73  72 SE10      29.88F
OKLAHOMA CITY  MOSUNNY   93  62  35 S17G25    29.68F HX  93
ALBUQUERQUE NM MOSUNNY   77  27  15 SW21G28   29.89F
SALT LAKE CITY LGT RAIN  53  39  59 NW8       30.11R
LOS ANGELES CA MOSUNNY   72  62  71 W13       29.78F
BOISE ID       SUNNY     62  36  37 NW14      30.14S
SEATTLE WA     MOSUNNY   63  49  60 W5        30.20F
$$

*** WEATHER ACROSS MANITOBA...SASKATCHEWAN AND ONTARIO ***
                ***ONTARIO***

CITY           SKY/WX    TMP DP  RH WIND       PRES   REMARKS
GERALDTON      DRIZZLE   52  50  93 S14G20    29.87F
THUNDER BAY    LGT RAIN  50  48  93 E6        29.84F FOG
SIOUX LOOKOUT  NOT AVBL
TORONTO        NOT AVBL
BIG TROUT LK   MOSUNNY   57  48  72 S18G24    29.54S
PICKLE LAKE    CLOUDY    54  46  76 S12       29.67S
DRYDEN         CLOUDY    55  50  82 S15G21    29.64
KENORA         DRIZZLE   57  52  82 S15G23    29.56F
$$
                *** MANITOBA***

CITY           SKY/WX    TMP DP  RH WIND       PRES   REMARKS
BRANDON        PTSUNNY   57  50  77 W20G26    29.57R
DAUPHIN        PTSUNNY   57  50  77 NW10G17   29.49R
ISLAND LAKE    LGT RAIN  55  55 100 SE12G18   29.34F FOG
PILOT MOUND      N/A     57  48  72 W15G22      N/A
THE PAS        LGT RAIN  50  48  93 NW23G32   29.42R
THOMPSON       LGT RAIN  46  46 100 CALM      29.31S
WINNIPEG       NOT AVBL
LYNN LAKE      LGT RAIN  48  46  93 NW13G21   29.39R
CHURCHILL      LGT RAIN  43  41  93 SE12      29.42S
GILLAM         CLOUDY    54  48  82 S12       29.34F
$$
                ***SASKATCHEWAN***

CITY           SKY/WX    TMP DP  RH WIND       PRES   REMARKS
ESTEVAN        PTSUNNY   55  50  82 NW15      29.71S
KINDERSLEY     MOSUNNY   59  28  31 NW17      29.76R
LLOYDMINSTER   NOT AVBL
PRINCE ALBERT  PTSUNNY   59  39  47 NW15G25   29.62S
REGINA         PTSUNNY   57  43  58 NW17G28   29.70R



USA.gov is the U.S. government's official web portal to all federal, state and local government web resources and services.